World > North America > United States > New York

Hourly Newport, NY Regional Weather

Feedback E-mail the Weather

Latest News

Newport, NY Weather Maps

°F °C°F °C
Newport Weather Map
UTC Time: 5/21/2022, 02:38
Your Time:

Newport, NY Regional Weather

Expires:202205210300;;302607
ASUS41 KGYX 210210
RWRGYX
WEATHER ROUNDUP FOR MAINE AND NEW HAMPSHIRE
NATIONAL WEATHER SERVICE GRAY ME
1000 PM EDT FRI MAY 20 2022


MAZ007-012-024-CTZ003-RIZ002-NYZ038-NYZ072-210300-
SOUTHERN NEW ENGLAND AND NY
  
CITY           SKY/WX    TMP DP  RH WIND       PRES   REMARKS
BOSTON         CLOUDY    61  55  81 SE10      30.06R                  
WORCESTER      CLOUDY    63  59  87 SE12      30.03R                  
NANTUCKET      CLOUDY    55  53  93 SE10      30.10R                  
PROVIDENCE     LGT RAIN  59  55  87 S8        30.05S                  
HARTFORD       LGT RAIN  64  60  87 S9        29.99R                  
ALBANY         MOCLDY    69  61  75 SE12G22   29.91R                  
NEW YORK CITY  CLOUDY    61  58  90 NE9       29.95S FOG              
$$


SKY/WX - Weather  TMP - Temperature  DP - Dew Point  RH - Humidity
WIND - Wind Direction/Speed PRES - Barometric Pressure VSB - Visibility
WCI - Wind Chill Index E13G22 Wind - East Wind 13 mph/Gusts of 22 mph

Trending Headlines

Newport Radar Loop



Newport Quick Facts


National Two Day Weather Forecast


E-mail the Newport Weather Forecast

Voice your opinion or tell us about page issues...